Showing default

DEIMOS, 60526

Orbit data source: Space-Track

DEIMOS, 60526 is an American payload satellite in SSO that was launched on Fri, 16 Aug 2024 UTC via an FALCON 9 launch vehicle from the Air Force Western Test Range (AFWTR). Payload-class satellites include a variety of spacecraft equipped with specific instruments for various scientific and technological missions. These include communications satellites like Starlink; space stations such as the ISS; scientific satellites like the Hubble; Earth observation satellites from companies like Planet Labs, Umbra, and HawkEye 360; GPS; miniature CubeSats for education and research; and military/defense satellites.

Loading next visibility...
Identifier
60526, 2024-149BL
Orbit
SSO
Country
Flag of USUS
Related business
Manufacturer
Endurosat
Mission
Operational Commercial Imaging
Bus & Motor
CUBESAT 1.5U, Unknown motor
Mass
2 kg wet, 2 kg dry
Launch date (UTC)
2024-08-16 (2 years ago)
Launch vehicle
FALCON 9
Launch site
Air Force Western Test Range (AFWTR)
Object type
Payload
Rocket body
Debris
Shape & HBR
Box, 1.0 m
Radar Cross Section
0.025 m², Medium (>0.1 m² and < 1m²)

Expand to show TLE details & history
Last TLE update: 6 hours ago

TLE from 6 hours ago
0 DEIMOS
1 60526U 24149BL  26175.21308061  .00016725  00000-0  36308-3 0  9995
2 60526  97.3780 261.4583 0004333 248.1283 111.9505 15.44439271103539
Epoch: 2026-06-24T05:06Z
TLE epoch observation values (Epoch: 2026-06-24T05:06:50.164Z)
Latitude
-0.00003°
Longitude
-87.62424°
Altitude
437.255 km
Speed
7.649 km/s
True Right ascension
17h 25m 49s
True Declination
0° 00' 00"
Sunlit
Object was in full shadow at epoch
Visualization orbit readout
Latitude
Unknown
Longitude
Unknown
Altitude
Unknown
Speed
Unknown
Apparent Right ascension
Unknown
Apparent Declination
Unknown
Sunlit
N/A
Visualization observer readout
Local Sidereal Time
21:56:09
Azimuth
Unknown
Elevation
Unknown
Doppler factor
Unknown
Orbital elements
Apogee altitude
432.908 km
Perigee altitude
427.008 km
Semi-major axis
6,808.095 km
Eccentricity
0.00043
Inclination
97.378°
RAAN
261.4583°
Arg. of periapsis
248.1283°
True anomaly
111.99654°
Mean anomaly
111.9505°
Eccentric anomaly
111.97352°
Mean motion
3.86371 °/min
Orbital period
93.17 mins
BSTAR
0.00036308
Loading maneuver chart data...
Computing Atmospheric mass density...
Loading historical data...
Loading historical data...
Loading historical data...
Loading historical data...
Loading historical data...
Loading historical data...
Loading historical data...

Documentation

Showing up to 5 results
|